COSMOS 1275 DEB, 18640

Orbit data source: Space-Track

COSMOS 1275 DEB, 18640 is space debris in LEO originally from a launch on Thu, 04 Jun 1981 UTC launched from the Plesetsk Missile And Space Complex (PKMTR). Debris objects in space refer to the collection of defunct objects orbiting the Earth. Examples of debris include non-operational satellites, rocket bodies, and fragments generated from explosions, collisions, or faulty payload assembly.

Loading next visibility...
Identifier
18640, 1981-053MA
Orbit
LEO
Country
Flag of CISCIS
Related business
Manufacturer
Unknown
Mission
Spacecraft
Bus & Motor
Unknown
Mass
Unknown
Launch date (UTC)
1981-06-04 (45 years ago)
Launch vehicle
Unknown
Launch site
Plesetsk Missile And Space Complex (PKMTR)
Object type
Payload
Rocket body
Debris
Shape & HBR
Unknown shape, 0.1 m
Radar Cross Section
Medium (>0.1 m² and <1 m²)

Expand to show TLE details & history
Last TLE update: 2 days ago

TLE from 2 days ago
0 COSMOS 1275 DEB
1 18640U 81053MA  26174.18164594  .00001132  00000-0  91733-3 0  9997
2 18640  83.2037  75.8965 0081222 234.8859 278.2694 13.87783626 62601
Epoch: 2026-06-23T04:21Z
TLE epoch observation values (Epoch: 2026-06-23T04:21:34.209Z)
Latitude
27.59521°
Longitude
-84.4056°
Altitude
931.733 km
Speed
7.392 km/s
True Right ascension
16h 49m 22s
True Declination
27° 27' 27"
Sunlit
Object was in full shadow at epoch
Visualization orbit readout
Latitude
Unknown
Longitude
Unknown
Altitude
Unknown
Speed
Unknown
Apparent Right ascension
Unknown
Apparent Declination
Unknown
Sunlit
N/A
Visualization observer readout
Local Sidereal Time
13:34:38
Azimuth
Unknown
Elevation
Unknown
Doppler factor
Unknown
Orbital elements
Apogee altitude
992.916 km
Perigee altitude
874.142 km
Semi-major axis
7,311.666 km
Eccentricity
0.00812
Inclination
83.2037°
RAAN
75.8965°
Arg. of periapsis
234.8859°
True anomaly
277.34703°
Mean anomaly
278.2694°
Eccentric anomaly
277.80835°
Mean motion
3.47151 °/min
Orbital period
103.7 mins
BSTAR
0.00091733
Loading maneuver chart data...
Computing Atmospheric mass density...

Documentation

Showing up to 5 results
|